Greenville, ME

2:33 AM EST on November 15, 2019 (GMT -0500)
Greenville

Weather History for KGNR - September, 2019

Change the Weather History Date:

Sunday, September 8, 2019

  Actual Average (WUND) Record (WUND)
Temperature  
Mean Temperature 54 °F -  
Max Temperature 62 °F - - (-1)
Min Temperature 45 °F - - (-1)
Degree Days  
Heating Degree Days 12    
Growing Degree Days 4 (Base 50)    
Moisture  
Dew Point 43 °F    
Average Humidity 73    
Maximum Humidity 86    
Minimum Humidity 50    
Precipitation  
Precipitation 0.00 in - - ()
Sea Level Pressure  
Sea Level Pressure 29.94 in    
Wind  
Wind Speed 7 mph ()    
Max Wind Speed 13 mph    
Max Gust Speed 20 mph    
Averages and records for this station are not official NWS values.
T = Trace of Precipitation, MM = Missing Value Source: Averaged Metar Reports

Daily Weather History Graph

Daily Weather History Graph

Search for Another Location

Airport or City:

Astronomy

Sep. 08, 2019 Rise Set
Actual Time 6:07 AM EDT 7:03 PM EDT
Civil Twilight 5:37 AM EDT 7:33 PM EDT
Nautical Twilight 5:01 AM EDT 8:09 PM EDT
Astronomical Twilight 4:24 AM EDT 8:46 PM EDT
Moon 4:23 PM EDT (9/8) 12:30 AM EDT (9/8)
Length of Visible Light 13h 55m
Length of Day
12h 55m
Waxing Gibbous, 75% of the Moon is Illuminated
Sep 8
Waxing Gibbous
Sep 14
Full
Sep 21
Last Quarter
Sep 28
New
Oct 5
First Quarter

Hourly Weather History & Observations

Time (EDT) Temp. Windchill Dew Point Humidity Pressure Visibility Wind Dir Wind Speed Gust Speed Precip Events Conditions
12:56 AM 46.9 °F - 42.1 °F 83% 29.76 in - North 8.1 mph - N/A   Unknown
1:56 AM 46.9 °F - 41.0 °F 80% 29.78 in - NW 8.1 mph - N/A   Unknown
2:56 AM 46.9 °F - 41.0 °F 80% 29.78 in - NNW 6.9 mph - N/A   Unknown
3:56 AM 46.9 °F - 42.1 °F 83% 29.79 in - NW 9.2 mph 17.3 mph N/A   Unknown
4:56 AM 46.0 °F 41.4 °F 39.9 °F 79% 29.81 in - NNW 9.2 mph - N/A   Unknown
5:56 AM 46.0 °F 41.9 °F 41.0 °F 83% 29.84 in - NNW 8.1 mph - N/A   Unknown
6:56 AM 45.0 °F 41.2 °F 41.0 °F 86% 29.86 in - NW 6.9 mph - N/A   Unknown
7:56 AM 46.9 °F - 42.1 °F 83% 29.88 in - NW 8.1 mph - N/A   Unknown
8:56 AM 50.0 °F - 42.1 °F 74% 29.89 in - NW 9.2 mph - N/A   Unknown
9:56 AM 53.1 °F - 42.1 °F 66% 29.91 in - NW 8.1 mph - N/A   Unknown
10:56 AM 55.0 °F - 42.1 °F 62% 29.92 in - WNW 8.1 mph 17.3 mph N/A   Unknown
11:56 AM 55.9 °F - 43.0 °F 62% 29.92 in - NW 10.4 mph - N/A   Unknown
12:56 PM 62.1 °F - 43.0 °F 50% 29.93 in - NNW 10.4 mph - N/A   Unknown
1:56 PM 60.1 °F - 42.1 °F 51% 29.93 in - WNW 10.4 mph 17.3 mph N/A   Unknown
2:56 PM - - - N/A% - - North - - N/A   Unknown
3:56 PM 57.0 °F - 45.0 °F 64% 29.98 in - NW 12.7 mph 19.6 mph N/A   Unknown
4:56 PM 55.9 °F - 45.0 °F 67% 29.99 in - NW 9.2 mph - N/A   Unknown
5:56 PM 55.9 °F - 44.1 °F 64% 30.01 in - NW 10.4 mph 19.6 mph N/A   Unknown
6:56 PM 54.0 °F - 44.1 °F 69% 30.05 in - WNW 6.9 mph - N/A   Unknown
7:56 PM 53.1 °F - 44.1 °F 71% 30.07 in - WNW 6.9 mph - N/A   Unknown
8:56 PM 52.0 °F - 44.1 °F 74% 30.09 in - NW 11.5 mph 19.6 mph N/A   Unknown
9:56 PM 51.1 °F - 45.0 °F 80% 30.11 in - NW 6.9 mph - N/A   Unknown
10:56 PM 50.0 °F - 44.1 °F 80% 30.13 in - NW 5.8 mph - N/A   Unknown
11:56 PM 48.9 °F - 44.1 °F 83% 30.13 in - NW 5.8 mph - N/A   Unknown